Soldotna, AK

7:50 AM AKDT on October 17, 2017 (GMT -0800)
Soldotna

Weather History for PASX - October, 2013

Change the Weather History Date:

Thursday, October 3, 2013

  Actual Average Record
Temperature  
Mean Temperature 40 °F -  
Max Temperature 51 °F 47 °F 60 °F (1954)
Min Temperature 30 °F 32 °F 13 °F (1974)
Degree Days  
Heating Degree Days 24    
Moisture  
Dew Point 36 °F    
Average Humidity 74    
Maximum Humidity 93    
Minimum Humidity 54    
Precipitation  
Precipitation 0.00 in - - ()
Sea Level Pressure  
Sea Level Pressure 29.52 in    
Wind  
Wind Speed 6 mph (NE)    
Max Wind Speed 20 mph    
Max Gust Speed 30 mph    
Visibility 10 miles    
Events      
Averages and records for this station are not official NWS values.
T = Trace of Precipitation, MM = Missing Value Source: NWS Daily Summary

Daily Weather History Graph

Daily Weather History Graph

Search for Another Location

Airport or City:

Trip Planner

Search our weather history database for the weather conditions in past years. The results will help you decide how hot, cold, wet, or windy it might be!

Date:

Astronomy

Oct. 03, 2013 Rise Set
Actual Time 8:16 AM AKDT 7:28 PM AKDT
Civil Twilight 7:33 AM AKDT 8:10 PM AKDT
Nautical Twilight 6:44 AM AKDT 8:59 PM AKDT
Astronomical Twilight 5:53 AM AKDT 9:50 PM AKDT
Moon 6:49 AM AKDT (10/3) 6:45 PM AKDT (10/3)
Length of Visible Light 12h 36m
Length of Day
11h 12m
Waning Crescent, 2% of the Moon is Illuminated
Oct 3
Waning Crescent
Oct 4
New
Oct 11
First Quarter
Oct 18
Full
Oct 26
Last Quarter

Hourly Weather History & Observations

Time (AKDT) Temp. Windchill Dew Point Humidity Pressure Visibility Wind Dir Wind Speed Gust Speed Precip Events Conditions
12:16 AM 35.6 °F - 33.8 °F 93% 29.74 in 10.0 mi Calm Calm - N/A   Partly Cloudy
12:36 AM 33.8 °F - 30.2 °F 87% 29.74 in 10.0 mi Calm Calm - N/A   Partly Cloudy
12:56 AM 33.8 °F - 28.4 °F 81% 29.74 in 9.0 mi Calm Calm - N/A   Mostly Cloudy
1:16 AM 32.0 °F - 28.4 °F 87% 29.74 in 10.0 mi Calm Calm - N/A   Partly Cloudy
1:36 AM 30.2 °F - 28.4 °F 93% 29.73 in 3.0 mi Calm Calm - N/A   Scattered Clouds
1:56 AM 30.2 °F 25.4 °F 28.4 °F 93% 29.73 in 3.0 mi East 4.6 mph - N/A   Partly Cloudy
2:16 AM 30.2 °F - 28.4 °F 93% 29.72 in 1.8 mi Calm Calm - N/A   Scattered Clouds
2:36 AM 30.2 °F - 26.6 °F 86% 29.71 in 9.0 mi Calm Calm - N/A   Clear
2:56 AM 30.2 °F - 28.4 °F 93% 29.71 in 10.0 mi Calm Calm - N/A   Clear
3:16 AM 35.6 °F 32.8 °F 32.0 °F 87% 29.70 in 10.0 mi East 3.5 mph - N/A   Scattered Clouds
3:36 AM 37.4 °F 32.8 °F 35.6 °F 93% 29.69 in 10.0 mi East 5.8 mph - N/A   Mostly Cloudy
3:56 AM 37.4 °F 32.8 °F 35.6 °F 93% 29.68 in 10.0 mi ENE 5.8 mph - N/A   Mostly Cloudy
4:16 AM 39.2 °F 35.0 °F 37.4 °F 93% 29.67 in 10.0 mi ENE 5.8 mph - N/A   Mostly Cloudy
4:36 AM 41.0 °F 36.4 °F 37.4 °F 87% 29.66 in 10.0 mi NE 6.9 mph - N/A   Overcast
4:56 AM 41.0 °F 35.2 °F 37.4 °F 87% 29.65 in 10.0 mi NE 9.2 mph 16.1 mph N/A   Mostly Cloudy
5:16 AM 41.0 °F 35.2 °F 37.4 °F 87% 29.64 in 10.0 mi NE 9.2 mph - N/A   Overcast
5:36 AM 41.0 °F 35.8 °F 37.4 °F 87% 29.63 in 10.0 mi NE 8.1 mph - N/A   Mostly Cloudy
5:56 AM 41.0 °F 37.1 °F 37.4 °F 87% 29.63 in 10.0 mi NNE 5.8 mph - N/A   Scattered Clouds
6:16 AM 41.0 °F 37.1 °F 37.4 °F 87% 29.62 in 10.0 mi NE 5.8 mph - N/A   Scattered Clouds
6:36 AM 41.0 °F 36.4 °F 37.4 °F 87% 29.61 in 10.0 mi NE 6.9 mph - N/A   Partly Cloudy
6:56 AM 41.0 °F 38.0 °F 37.4 °F 87% 29.60 in 10.0 mi NNE 4.6 mph - N/A   Partly Cloudy
7:16 AM 41.0 °F 38.0 °F 37.4 °F 87% 29.59 in 10.0 mi NNE 4.6 mph - N/A   Clear
7:36 AM 42.8 °F 38.6 °F 37.4 °F 81% 29.59 in 10.0 mi NE 6.9 mph - N/A   Partly Cloudy
7:56 AM 42.8 °F 38.0 °F 37.4 °F 81% 29.58 in 10.0 mi NE 8.1 mph - N/A   Partly Cloudy
8:16 AM 42.8 °F 37.5 °F 37.4 °F 81% 29.57 in 10.0 mi NNE 9.2 mph 18.4 mph N/A   Clear
8:36 AM 42.8 °F 37.5 °F 37.4 °F 81% 29.56 in 10.0 mi NNE 9.2 mph - N/A   Clear
8:56 AM 42.8 °F 37.5 °F 37.4 °F 81% 29.55 in 10.0 mi NNE 9.2 mph 20.7 mph N/A   Clear
9:16 AM 42.8 °F 37.0 °F 37.4 °F 81% 29.54 in 10.0 mi NNE 10.4 mph 20.7 mph N/A   Clear
9:36 AM 42.8 °F 38.0 °F 37.4 °F 81% 29.53 in 10.0 mi NNE 8.1 mph 16.1 mph N/A   Clear
9:56 AM 44.6 °F 38.1 °F 37.4 °F 76% 29.53 in 10.0 mi NNE 13.8 mph 19.6 mph N/A   Clear
10:16 AM 44.6 °F 38.8 °F 37.4 °F 76% 29.51 in 10.0 mi NNE 11.5 mph 19.6 mph N/A   Clear
10:36 AM 44.6 °F 37.8 °F 37.4 °F 76% 29.51 in 10.0 mi NNE 15.0 mph - N/A   Scattered Clouds
10:56 AM 44.6 °F 39.7 °F 37.4 °F 76% 29.50 in 10.0 mi NNE 9.2 mph 16.1 mph N/A   Mostly Cloudy
11:16 AM 46.4 °F 40.1 °F 37.4 °F 71% 29.49 in 10.0 mi NNE 15.0 mph 21.9 mph N/A   Partly Cloudy
11:36 AM 46.4 °F 41.5 °F 37.4 °F 71% 29.48 in 10.0 mi NE 10.4 mph 20.7 mph N/A   Clear
11:56 AM 46.4 °F 41.1 °F 37.4 °F 71% 29.47 in 10.0 mi NNE 11.5 mph 27.6 mph N/A   Clear
12:16 PM 46.4 °F 40.7 °F 35.6 °F 66% 29.47 in 10.0 mi NNE 12.7 mph 21.9 mph N/A   Clear
12:36 PM 46.4 °F 40.7 °F 37.4 °F 71% 29.46 in 10.0 mi NNE 12.7 mph 21.9 mph N/A   Scattered Clouds
12:56 PM 46.4 °F 40.7 °F 37.4 °F 71% 29.45 in 10.0 mi NNE 12.7 mph 19.6 mph N/A   Overcast
1:16 PM 48.2 °F - 35.6 °F 62% 29.45 in 10.0 mi NNE 13.8 mph 20.7 mph N/A   Overcast
1:36 PM 48.2 °F - 37.4 °F 66% 29.43 in 10.0 mi NNE 10.4 mph 26.5 mph N/A   Mostly Cloudy
1:56 PM 48.2 °F - 37.4 °F 66% 29.43 in 10.0 mi NNE 12.7 mph 23.0 mph N/A   Clear
2:16 PM 48.2 °F - 37.4 °F 66% 29.41 in 10.0 mi NNE 10.4 mph 17.3 mph N/A   Clear
2:36 PM 48.2 °F - 37.4 °F 66% 29.41 in 10.0 mi NNE 13.8 mph 27.6 mph N/A   Clear
2:56 PM 50.0 °F - 37.4 °F 62% 29.41 in 10.0 mi NNE 15.0 mph 21.9 mph N/A   Clear
3:16 PM 50.0 °F - 37.4 °F 62% 29.40 in 10.0 mi NNE 9.2 mph 26.5 mph N/A   Clear
3:36 PM 51.8 °F - 37.4 °F 58% 29.40 in 10.0 mi NNE 16.1 mph 23.0 mph N/A   Clear
3:56 PM 51.8 °F - 37.4 °F 58% 29.40 in 10.0 mi NNE 17.3 mph 29.9 mph N/A   Clear
4:16 PM 51.8 °F - 37.4 °F 58% 29.39 in 10.0 mi NE 18.4 mph 27.6 mph N/A   Partly Cloudy
4:36 PM 51.8 °F - 37.4 °F 58% 29.39 in 10.0 mi NNE 11.5 mph 24.2 mph N/A   Mostly Cloudy
4:56 PM 51.8 °F - 35.6 °F 54% 29.39 in 10.0 mi NNE 12.7 mph 25.3 mph N/A   Mostly Cloudy
5:16 PM 51.8 °F - 35.6 °F 54% 29.39 in 10.0 mi NE 18.4 mph 26.5 mph N/A   Scattered Clouds
5:36 PM 51.8 °F - 35.6 °F 54% 29.39 in 10.0 mi NE 19.6 mph 25.3 mph N/A   Mostly Cloudy
5:56 PM 51.8 °F - 35.6 °F 54% 29.39 in 10.0 mi NE 16.1 mph 23.0 mph N/A   Partly Cloudy
6:16 PM 51.8 °F - 35.6 °F 54% 29.40 in 10.0 mi NE 13.8 mph 24.2 mph N/A   Scattered Clouds
6:36 PM 51.8 °F - 35.6 °F 54% 29.39 in 10.0 mi NE 12.7 mph 20.7 mph N/A   Scattered Clouds
6:56 PM 50.0 °F - 35.6 °F 58% 29.40 in 10.0 mi NE 10.4 mph 23.0 mph N/A   Mostly Cloudy
7:16 PM 50.0 °F - 35.6 °F 58% 29.40 in 10.0 mi NNE 8.1 mph - N/A   Overcast
7:36 PM 48.2 °F - 37.4 °F 66% 29.41 in 10.0 mi NNE 6.9 mph - N/A   Mostly Cloudy
8:36 PM 50.0 °F - 35.6 °F 58% 29.42 in 10.0 mi NE 9.2 mph - N/A   Overcast
8:56 PM 50.0 °F - 35.6 °F 58% 29.42 in 10.0 mi NE 9.2 mph - N/A   Overcast
9:16 PM 50.0 °F - 35.6 °F 58% 29.43 in 10.0 mi NE 9.2 mph - N/A   Overcast
9:36 PM 48.2 °F - 37.4 °F 66% 29.43 in 10.0 mi NE 8.1 mph - N/A   Overcast
9:56 PM 48.2 °F - 37.4 °F 66% 29.43 in 10.0 mi ENE 8.1 mph - N/A   Overcast
10:16 PM 48.2 °F - 37.4 °F 66% 29.43 in 10.0 mi NE 8.1 mph - N/A   Overcast
10:36 PM 48.2 °F - 37.4 °F 66% 29.43 in 10.0 mi ENE 4.6 mph - N/A   Overcast
10:56 PM 48.2 °F - 35.6 °F 62% 29.44 in 10.0 mi ENE 3.5 mph - N/A   Overcast
11:16 PM 46.4 °F - 37.4 °F 71% 29.44 in 10.0 mi Calm Calm - N/A   Overcast
11:36 PM 46.4 °F - 37.4 °F 71% 29.44 in 10.0 mi Calm Calm - N/A   Overcast
11:56 PM 46.4 °F 44.3 °F 37.4 °F 71% 29.45 in 10.0 mi East 4.6 mph - N/A   Overcast